Regional Weather Roundup
Issued by NWS

Home | Current Version | Previous Version | Text Only | Print | Product List | Glossary On
Versions: 1 2 3 4 5 6 7 8 9 10 11 12 13 14 15 16 17 18 19 20 21 22 23 24 25 26 27 28 29 30 31 32 33 34 35 36 37 38 39 40 41 42 43 44 45 46 47 48 49 50
000
ASUS43 KMPX 260410
RWRMN
WEATHER ROUNDUP FOR MINNESOTA
NATIONAL WEATHER SERVICE TWIN CITIES/CHANHASSEN MN
1100 PM CDT SAT MAR 25 2017


NOTE: "FAIR" INDICATES FEW OR NO CLOUDS BELOW 12,000 FEET WITH NO
SIGNIFICANT WEATHER AND/OR OBSTRUCTIONS TO VISIBILITY. N/A MEANS
CURRENT SKY AND/OR WEATHER CONDITIONS ARE NOT AVAILABLE.

MNZ060>063-068>070-260500-
   Twin Cities Metro

CITY           SKY/WX    TMP DP  RH WIND       PRES   REMARKS
TWIN CITIES    DRIZZLE   40  35  83 E9        30.04F
ST PAUL        CLOUDY    39  37  92 E8        30.05F FOG
CRYSTAL        CLOUDY    40  32  73 E7        30.03F
BLAINE         CLOUDY    41  36  81 E10       30.04F
LAKEVILLE      DRIZZLE   36  36 100 NE6       30.02F
EDEN PRAIRIE   CLOUDY    41  34  76 E13       30.02S
SOUTH ST PAUL  CLOUDY    38  37  96 E6        30.03F FOG
LAKE ELMO      CLOUDY    37  36  93 NE7       30.04F FOG
$$
MNZ001>005-007-008-013>017-022>024-027-028-260500-
   Northwest Minnesota

CITY           SKY/WX    TMP DP  RH WIND       PRES   REMARKS
BEMIDJI        CLOUDY    31  27  86 SE7       30.05S WCI  24
HALLOCK        CLOUDY    34  32  93 S6        30.00F WCI  29
ROSEAU         PTCLDY    37  30  75 S12       30.00F
WARROAD        PTCLDY    37  30  75 S10G17    30.02F
THIEF RVR FALL CLOUDY   N/A N/A N/A S6        30.02F
CROOKSTON      CLOUDY    34  32  93 S5        30.02F WCI  30
FOSSTON        PTCLDY    34  27  75 SE9       30.02F WCI  26
DETROIT LAKES  CLOUDY    36  30  80 SE12      30.03F
MOORHEAD       CLOUDY    34  32  93 CALM      30.04S
PARK RAPIDS    CLEAR     33  26  75 SE7       30.03F WCI  27
MAHNOMEN       FAIR      35  29  80 SE7       30.02S WCI  29
$$
MNZ006-009>011-018-025>026-260500-
   North Central Minnesota

CITY           SKY/WX    TMP DP  RH WIND       PRES   REMARKS
BAUDETTE       CLOUDY    35  27  72 SE12G21   30.03F WCI  27
FLAG ISLAND    PTCLDY    34  28  80 S17       30.01F WCI  23
INTL FALLS     CLOUDY    32  25  75 S9        30.08F WCI  24
WASKISH        PTCLDY    32  27  80 SE13      30.05F WCI  22
BIG FORK       CLOUDY    32  27  80 S8        30.08F WCI  25
LONGVILLE      CLOUDY    30  28  93 E5        30.05F WCI  25
GRAND RAPIDS   CLOUDY    31  28  89 SE8G16    30.10F WCI  23
CRANE LAKE     CLOUDY    30  25  80 S9        30.13F WCI  22
ORR            CLOUDY    30  25  80 CALM      30.08F
COOK           CLOUDY    30  27  86 SE6       30.10F WCI  24
WALKER         FAIR      30  27  86 E3        30.05F
$$
MNZ012-019>021-037-260500-
   Northeast Minnesota

CITY           SKY/WX    TMP DP  RH WIND       PRES   REMARKS
DULUTH         FRZ DRZL  31  30  96 E12       30.09F FOG     WCI  22
ELY            CLOUDY    30  27  86 SE12      30.11F WCI  21
HIBBING        CLOUDY    30  27  88 SE12      30.09F WCI  20
EVELETH        CLOUDY    32  28  86 SE6       30.11F WCI  27
DULUTH HARBOR  CLOUDY    34  32  93 NE21      30.14F WCI  22
TWO HARBORS    CLOUDY    34  28  80 NE10      30.12F HAZE    WCI  26
SILVER BAY     CLOUDY    32  32 100 NE10      30.13F FOG     WCI  24
GRAND MARAIS     N/A     32  26  78 E14G22    30.21F WCI  22
G MARAIS ARPRT CLOUDY    27  21  80 E7        30.15F WCI  19
$$
MNZ029>031-032-039>041-046>048-054>057-064-260500-
   West Central Minnesota

CITY           SKY/WX    TMP DP  RH WIND       PRES   REMARKS
FERGUS FALLS   CLOUDY    36  30  80 CALM      30.06F
WHEATON        CLOUDY    37  34  87 SE6       30.03F
MORRIS         CLOUDY    37  36  93 SE7       30.01F
ALEXANDRIA     CLOUDY    39  35  86 SE6       30.02F
ELBOW LAKE     CLOUDY    37  34  89 E9        30.02F
WADENA         MOCLDY    34  28  80 E8        30.02F WCI  27
GLENWOOD       CLOUDY    37  36  93 E7        30.03F
APPLETON       CLOUDY    39  36  87 CALM      30.02F
BENSON         CLOUDY    41  34  75 SE6       30.04F
MADISON        CLOUDY    39  39 100 E5        30.02F FOG
WILLMAR        CLOUDY    39  37  93 E7        30.04F
$$
MNZ033>034-036-042>043-049>051-058-059-260500-
   Central Minnesota

CITY           SKY/WX    TMP DP  RH WIND       PRES   REMARKS
ST CLOUD       CLOUDY    40  34  79 E6        30.04F
SAUK CENTRE    CLOUDY    38  34  84 E3        30.04F
PAYNESVILLE      N/A     39  35  85 E6        30.04F
AITKIN         CLOUDY    36  28  75 E7        30.06F
PINE RIVER     CLOUDY    32  28  86 SE10      30.08F WCI  24
BRAINERD       CLOUDY    34  28  79 E7        30.06F WCI  28
STAPLES        CLOUDY    36  28  75 E5        30.04F
LONG PRAIRIE   CLOUDY    37  32  81 NE8       30.03F
LITTLE FALLS   CLOUDY    36  30  80 E7        30.06S
LITCHFIELD     CLOUDY    39  37  93 E7        30.03F
BUFFALO        CLOUDY    39  34  80 NE8       30.05F
MAPLE LAKE     CLOUDY    40  36  84 E9        30.05F
HUTCHINSON     CLOUDY    39  37  92 NE8       30.03F
$$
MNZ037-044-045-052-053-260500-
   East Central Minnesota

CITY           SKY/WX    TMP DP  RH WIND       PRES   REMARKS
PRINCETON      CLOUDY    43  34  70 E5        30.05F
MORA           CLOUDY    34  28  80 NE5       30.09F WCI  30
CAMBRIDGE      CLOUDY    43  32  65 NE5       30.04F
RUSH CITY      CLOUDY    38  31  74 NE8       30.07F
MOOSE LAKE     CLOUDY    32  30  93 NE6       30.08F WCI  26
CLOQUET        CLOUDY    30  30 100 E10G18    30.09F FOG     WCI  21
MCGREGOR       CLOUDY    32  30  93 E7        30.09F WCI  26
$$
MNZ071>073-080-081-089-090-097-098-260500-
   Southwest Minnesota

CITY           SKY/WX    TMP DP  RH WIND       PRES   REMARKS
MONTEVIDEO     CLOUDY    37  37 100 SE8       30.04F
GRANITE FALLS  CLOUDY    39  37  93 NE6       30.04S
CANBY          CLOUDY    38  37  97 CALM      30.02F FOG
MARSHALL       CLOUDY    38  36  92 E6        30.02F FOG
REDWOOD FALLS  CLOUDY    39  33  79 E6        30.01F
OLIVIA         CLOUDY    37  34  87 NE7       30.02S
PIPESTONE      CLOUDY    37  34  87 E7        29.97F FOG
WINDOM         CLOUDY    37  36  93 NE9       29.99F FOG
WORTHINGTON    CLOUDY    36  35  96 E12       29.97F FOG
JACKSON        CLOUDY    36  36 100 NE9       29.98F FOG
TRACY          CLOUDY    38  37  94 NE5       30.01S
SLAYTON        CLOUDY    35  35  99 E9G16     29.99F FOG     WCI  28
$$
MNZ065>067-074>077-082>085-091>093-260500-
   South Central Minnesota

CITY           SKY/WX    TMP DP  RH WIND       PRES   REMARKS
MANKATO        LGT RAIN  38  36  92 NE8       30.00F
NEW ULM        CLOUDY    37  36  93 NE7       30.01F
ST JAMES       CLOUDY    37  37 100 CALM      30.01F FOG
FAIRMONT       CLOUDY    37  36  96 NE7       29.99S
GLENCOE        CLOUDY    40  38  92 E9        30.02F
FARIBAULT      LGT RAIN  37  37 100 NE7       30.00F
OWATONNA       CLOUDY    37  36  93 E9        29.99F
WASECA         CLOUDY    36  34  93 NE9       30.00F
ALBERT LEA     DRIZZLE   36  36 100 E8        29.96F
$$
MNZ078>079-086>088-094>096-260500-
   Southeast Minnesota

CITY           SKY/WX    TMP DP  RH WIND       PRES   REMARKS
ROCHESTER      CLOUDY    35  35 100 E14       29.99S WCI  26
RED WING       LGT RAIN  37  36  93 E7        30.02S
STANTON        LGT RAIN  38  36  91 NE6       30.00F
DODGE CENTER   CLOUDY    36  36 100 E13       29.98F FOG
WINONA         CLOUDY    36  34  93 E9        30.04S
AUSTIN         CLOUDY    36  34  93 E10       29.97S
PRESTON        CLOUDY    35  33  95 E10G16    29.99S FOG     WCI  27
$$
ABBREVIATIONS USED IN REMARKS
   TC - TEMPERATURES IN CELSIUS
  WCI - WIND CHILL INDEX
   HX - HEAT INDEX
  VSB - VISIBILITY
$$



USA.gov is the U.S. government's official web portal to all federal, state and local government web resources and services.